Portada
METAR-TAF:

METAR-TAF

Aeroports :

Langlade County Airport

Antigo, Wisconsin, Estats Units d'Amèrica

latitud: 45-09-15N, longitud: 89-06-39W, altitud: 464 m

Observació

L'informe es va fer fa 24 minuts, a les 02:35 UTC
Vent 9 kt del Sud-Est
Temperatura -5°C
Humitat 93%
Pressió 1015 hPa
Visibilitat: 11.3 km
Cel cobert a una alçada de 800 ft

METAR: KAIG 120235Z AUTO 13009KT 7SM OVC008 M05/M06 A2996 RMK AO2 T10551062

Hora: 20:59 (02:59 UTC)


TAF: manca

Observacions i pronòstics meteorològics de més de 4000 aeroports (METAR i TAF).

Les estacions disponibles són els punts grocs i vermells al mapa.

Posi el ratolí al punt desitjat per veure el nom de l'estació.

Feu clic per veure les observacions i els pronòstics meteorològics.

Per canviar el mapa: feu clic els botons verds amb una creu de color negre per apropar; al botó verd amb un guió per allunyar la imatge; o en les fletxes verdes per a mapes adjacents.


METAR-TAF: